• In United Kingdom
  • List of Countries
  • For 7 days
  • Water Temperature
  • Satellite Maps
  • Weather Map
  • Weather Widgets
  • user-avatar
    Login

    Hourly Weather Bujumbura

    Today, 26 September, Wednesday

    Time Temperature Precipitation Wind Pressure Humidity
    00:00 +25°C° 0 mm 1 mps 691 mmHg 63%
    01:00 +24°C° 0 mm 1 mps 691 mmHg 64%
    02:00 +24°C° 0 mm 1 mps 691 mmHg 64%
    03:00 +24°C° 0 mm 1 mps 691 mmHg 64%
    04:00 +24°C° 0 mm 1 mps 691 mmHg 64%
    05:00 +24°C° 0 mm 1 mps 691 mmHg 64%
    06:00 +25°C° 0 mm 1 mps 692 mmHg 59%
    07:00 +27°C° 0 mm 1 mps 692 mmHg 53%
    08:00 +29°C° 0 mm 1 mps 693 mmHg 48%
    09:00 +30°C° 0 mm 2 mps 693 mmHg 44%
    10:00 +32°C° 0 mm 2 mps 693 mmHg 41%
    11:00 +35°C° 0 mm 2 mps 693 mmHg 37%
    12:00 +35°C° 0 mm 2 mps 692 mmHg 37%
    13:00 +35°C° 0 mm 2 mps 691 mmHg 37%
    14:00 +35°C° 0 mm 2 mps 690 mmHg 37%
    15:00 +34°C° 0 mm 2 mps 690 mmHg 40%
    16:00 +32°C° 0 mm 2 mps 689 mmHg 42%
    17:00 +31°C° 0 mm 1 mps 689 mmHg 45%
    18:00 +30°C° 0.1 mm 1 mps 689 mmHg 49%
    19:00 +28°C° 0.1 mm 1 mps 690 mmHg 53%
    20:00 +27°C° 0.1 mm 1 mps 690 mmHg 57%
    21:00 +27°C° 0 mm 1 mps 691 mmHg 58%
    22:00 +26°C° 0 mm 1 mps 691 mmHg 60%
    23:00 +26°C° 0 mm 1 mps 691 mmHg 61%

    Tomorrow, 27 September, Thursday

    Time Temperature Precipitation Wind Pressure Humidity
    00:00 +25°C° 0 mm 1 mps 691 mmHg 62%
    01:00 +25°C° 0 mm 1 mps 690 mmHg 64%
    02:00 +25°C° 0 mm 1 mps 690 mmHg 65%
    03:00 +24°C° 0 mm 1 mps 690 mmHg 65%
    04:00 +24°C° 0 mm 1 mps 690 mmHg 66%
    05:00 +24°C° 0 mm 1 mps 690 mmHg 67%
    06:00 +26°C° 0 mm 1 mps 690 mmHg 60%
    07:00 +28°C° 0 mm 2 mps 691 mmHg 53%
    08:00 +29°C° 0 mm 2 mps 692 mmHg 47%
    09:00 +31°C° 0 mm 2 mps 692 mmHg 43%
    10:00 +34°C° 0 mm 2 mps 692 mmHg 38%
    11:00 +36°C° 0 mm 2 mps 692 mmHg 34%
    12:00 +36°C° 0 mm 2 mps 691 mmHg 34%
    13:00 +36°C° 0 mm 2 mps 690 mmHg 34%
    14:00 +36°C° 0 mm 2 mps 689 mmHg 34%
    15:00 +35°C° 0.3 mm 2 mps 689 mmHg 38%
    16:00 +32°C° 0.3 mm 1 mps 689 mmHg 42%
    17:00 +31°C° 0.3 mm 1 mps 688 mmHg 46%
    18:00 +30°C° 0.7 mm 1 mps 689 mmHg 51%
    19:00 +29°C° 0.7 mm 1 mps 690 mmHg 55%
    20:00 +27°C° 0.7 mm 1 mps 690 mmHg 60%
    21:00 +27°C° 0.8 mm 1 mps 690 mmHg 62%
    22:00 +27°C° 0.8 mm 1 mps 691 mmHg 63%
    23:00 +26°C° 0.8 mm 1 mps 691 mmHg 65%

    Day after tomorrow, 28 September, Friday

    Time Temperature Precipitation Wind Pressure Humidity
    00:00 +26°C° 0.1 mm 1 mps 690 mmHg 66%
    01:00 +26°C° 0.1 mm 1 mps 690 mmHg 67%
    02:00 +25°C° 0.1 mm 1 mps 689 mmHg 68%
    03:00 +25°C° 0 mm 1 mps 689 mmHg 68%
    04:00 +25°C° 0 mm 1 mps 689 mmHg 68%
    05:00 +25°C° 0 mm 1 mps 689 mmHg 69%
    06:00 +26°C° 0 mm 1 mps 690 mmHg 66%
    07:00 +27°C° 0 mm 1 mps 691 mmHg 63%
    08:00 +28°C° 0 mm 2 mps 692 mmHg 61%
    09:00 +30°C° 0 mm 2 mps 692 mmHg 56%
    10:00 +31°C° 0 mm 2 mps 692 mmHg 51%
    11:00 +33°C° 0 mm 1 mps 692 mmHg 46%
    12:00 +34°C° 0.6 mm 2 mps 691 mmHg 46%
    13:00 +34°C° 0.6 mm 2 mps 690 mmHg 46%
    14:00 +34°C° 0.6 mm 2 mps 689 mmHg 47%
    15:00 +32°C° 0.8 mm 2 mps 689 mmHg 50%
    16:00 +31°C° 0.8 mm 1 mps 689 mmHg 52%
    17:00 +31°C° 0.8 mm 1 mps 688 mmHg 55%
    18:00 +29°C° 0.7 mm 1 mps 689 mmHg 60%
    19:00 +28°C° 0.7 mm 1 mps 689 mmHg 64%
    20:00 +26°C° 0.7 mm 1 mps 690 mmHg 68%
    21:00 +26°C° 0.1 mm 1 mps 690 mmHg 69%
    22:00 +26°C° 0.1 mm 1 mps 690 mmHg 69%
    23:00 +26°C° 0.1 mm 1 mps 690 mmHg 70%

    29 September, Saturday

    Time Temperature Precipitation Wind Pressure Humidity
    00:00 +26°C° 0 mm 1 mps 690 mmHg 70%
    01:00 +25°C° 0 mm 1 mps 689 mmHg 70%
    02:00 +25°C° 0 mm 1 mps 689 mmHg 70%
    03:00 +25°C° 0.3 mm 1 mps 690 mmHg 70%
    04:00 +25°C° 0.3 mm 1 mps 690 mmHg 71%
    05:00 +25°C° 0.3 mm 1 mps 691 mmHg 71%
    06:00 +26°C° 0.4 mm 1 mps 691 mmHg 69%
    07:00 +27°C° 0.4 mm 1 mps 692 mmHg 67%
    08:00 +27°C° 0.4 mm 1 mps 693 mmHg 65%
    09:00 +29°C° 0.2 mm 1 mps 692 mmHg 61%
    10:00 +30°C° 0.2 mm 1 mps 692 mmHg 57%
    11:00 +31°C° 0.2 mm 2 mps 692 mmHg 53%
    12:00 +32°C° 0.7 mm 2 mps 691 mmHg 53%
    13:00 +32°C° 0.7 mm 2 mps 690 mmHg 53%
    14:00 +32°C° 0.7 mm 2 mps 689 mmHg 52%
    15:00 +31°C° 0.8 mm 2 mps 689 mmHg 56%
    16:00 +30°C° 0.8 mm 2 mps 689 mmHg 59%
    17:00 +29°C° 0.8 mm 1 mps 689 mmHg 62%
    18:00 +28°C° 0.8 mm 1 mps 690 mmHg 66%
    19:00 +27°C° 0.8 mm 1 mps 690 mmHg 69%
    20:00 +25°C° 0.8 mm 0 mps 691 mmHg 73%
    21:00 +26°C° 0.4 mm 1 mps 691 mmHg 74%
    22:00 +26°C° 0.4 mm 1 mps 691 mmHg 75%
    23:00 +26°C° 0.4 mm 1 mps 691 mmHg 76%

    30 September, Sunday

    Time Temperature Precipitation Wind Pressure Humidity
    00:00 +25°C° 0 mm 1 mps 690 mmHg 77%
    01:00 +25°C° 0 mm 1 mps 690 mmHg 78%
    02:00 +24°C° 0 mm 1 mps 689 mmHg 78%
    03:00 +24°C° 0 mm 1 mps 690 mmHg 78%
    04:00 +24°C° 0 mm 1 mps 690 mmHg 78%
    05:00 +24°C° 0 mm 1 mps 690 mmHg 78%
    06:00 +25°C° 0 mm 1 mps 691 mmHg 72%
    07:00 +27°C° 0 mm 1 mps 692 mmHg 67%
    08:00 +28°C° 0 mm 1 mps 692 mmHg 62%
    09:00 +29°C° 0 mm 1 mps 692 mmHg 58%
    10:00 +31°C° 0 mm 2 mps 692 mmHg 53%
    11:00 +32°C° 0 mm 2 mps 692 mmHg 49%
    12:00 +32°C° 0.2 mm 2 mps 691 mmHg 50%
    13:00 +31°C° 0.2 mm 2 mps 690 mmHg 51%
    14:00 +31°C° 0.2 mm 2 mps 689 mmHg 52%
    15:00 +30°C° 0.2 mm 1 mps 689 mmHg 54%
    16:00 +30°C° 0.2 mm 1 mps 689 mmHg 56%
    17:00 +29°C° 0.2 mm 1 mps 689 mmHg 58%
    18:00 +28°C° 0 mm 1 mps 689 mmHg 62%
    19:00 +27°C° 0 mm 1 mps 690 mmHg 65%
    20:00 +26°C° 0 mm 1 mps 690 mmHg 69%
    21:00 +25°C° 0 mm 1 mps 690 mmHg 70%
    22:00 +25°C° 0 mm 1 mps 690 mmHg 72%
    23:00 +24°C° 0 mm 1 mps 690 mmHg 73%

    1 October, Monday

    Time Temperature Precipitation Wind Pressure Humidity
    00:00 +24°C° 0 mm 1 mps 690 mmHg 73%
    01:00 +24°C° 0 mm 1 mps 689 mmHg 73%
    02:00 +24°C° 0 mm 1 mps 689 mmHg 74%
    03:00 +24°C° 0 mm 1 mps 689 mmHg 73%
    04:00 +23°C° 0 mm 1 mps 690 mmHg 73%
    05:00 +23°C° 0 mm 1 mps 690 mmHg 73%
    06:00 +25°C° 0 mm 1 mps 691 mmHg 66%
    07:00 +26°C° 0 mm 2 mps 692 mmHg 59%
    08:00 +28°C° 0 mm 2 mps 692 mmHg 52%
    09:00 +30°C° 0 mm 2 mps 692 mmHg 47%
    10:00 +31°C° 0 mm 2 mps 692 mmHg 42%
    11:00 +33°C° 0 mm 1 mps 692 mmHg 38%
    12:00 +34°C° 0 mm 2 mps 691 mmHg 38%
    13:00 +34°C° 0 mm 2 mps 690 mmHg 37%
    14:00 +34°C° 0 mm 2 mps 689 mmHg 37%
    15:00 +32°C° 0 mm 2 mps 689 mmHg 40%
    16:00 +31°C° 0 mm 1 mps 689 mmHg 43%
    17:00 +30°C° 0 mm 1 mps 689 mmHg 47%
    18:00 +29°C° 0 mm 1 mps 689 mmHg 50%
    19:00 +28°C° 0 mm 1 mps 690 mmHg 53%
    20:00 +25°C° 0 mm 0 mps 690 mmHg 56%
    21:00 +24°C° 0 mm 0 mps 690 mmHg 57%
    22:00 +26°C° 0 mm 1 mps 691 mmHg 58%
    23:00 +26°C° 0 mm 1 mps 691 mmHg 59%
    Show more